QPF
0.01 0.01 0.01 0.03 0.08 0.05 0.01 0.01 0.01 0.02 0.03 0.03 0.02 0.02 0.02 0.02 0.02 0.03 0.03 0.03 0.06 0.08 0.09 0.10 0.13 0.18 0.19 0.17 0.16 0.13 0.11 0.11 0.09 0.07 0.06 0.05 0.05 0.05 0.05 0.04 0.03 0.02 0.02
0.01 0.00 0.01 0.02 0.04 0.03 0.01 0.02 0.01 0.01 0.03 0.03 0.02 0.02 0.02 0.03 0.02 0.02 0.02 0.04 0.07 0.07 0.06 0.06 0.06 0.09 0.13 0.14 0.14 0.15 0.15 0.13 0.11 0.10 0.09 0.09 0.08 0.06 0.05 0.04 0.04 0.03 0.03
0.00 0.00 0.01 0.01 0.01 0.01 0.01 0.02 0.02 0.02 0.02 0.02 0.01 0.01 0.02 0.02 0.03 0.02 0.01 0.02 0.04 0.04 0.02 0.02 0.02 0.04 0.06 0.10 0.11 0.11 0.14 0.15 0.15 0.13 0.11 0.10 0.10 0.09 0.06 0.05 0.04 0.04 0.03
0.01 0.01 0.00 0.01 0.01 0.01 0.01 0.01 0.02 0.03 0.03 0.02 0.02 0.02 0.02 0.02 0.03 0.03 0.02 0.01 0.01 0.01 0.01 0.01 0.01 0.02 0.03 0.05 0.08 0.09 0.10 0.11 0.12 0.12 0.11 0.10 0.09 0.08 0.07 0.05 0.05 0.05 0.04
0.01 0.01 0.01 0.01 0.02 0.02 0.01 0.01 0.01 0.01 0.02 0.02 0.02 0.02 0.02 0.01 0.01 0.01 0.01 0.01 0.01 0.01 0.02 0.01 0.01 0.02 0.02 0.02 0.03 0.04 0.06 0.07 0.08 0.09 0.09 0.08 0.08 0.07 0.06 0.05 0.05 0.05 0.04
0.02 0.02 0.02 0.02 0.03 0.03 0.02 0.02 0.02 0.02 0.02 0.02 0.02 0.01 0.01 0.01 0.00 0.00 0.01 0.02 0.02 0.02 0.02 0.02 0.02 0.02 0.02 0.02 0.02 0.03 0.04 0.05 0.05 0.06 0.06 0.06 0.06 0.07 0.07 0.05 0.04 0.04 0.05
0.02 0.02 0.01 0.02 0.03 0.03 0.02 0.03 0.03 0.04 0.04 0.03 0.02 0.01 0.01 0.01 0.01 0.02 0.02 0.02 0.03 0.03 0.02 0.03 0.02 0.02 0.02 0.02 0.02 0.02 0.02 0.03 0.03 0.04 0.05 0.05 0.06 0.06 0.05 0.04 0.04 0.04 0.04
0.02 0.02 0.01 0.02 0.02 0.02 0.02 0.02 0.03 0.05 0.05 0.05 0.04 0.03 0.03 0.02 0.02 0.03 0.03 0.03 0.03 0.03 0.02 0.02 0.02 0.03 0.03 0.03 0.03 0.03 0.03 0.03 0.03 0.03 0.03 0.04 0.04 0.05 0.04 0.03 0.04 0.03 0.03
0.01 0.01 0.01 0.01 0.02 0.01 0.01 0.02 0.02 0.02 0.04 0.04 0.04 0.04 0.04 0.03 0.04 0.04 0.05 0.05 0.05 0.03 0.03 0.04 0.04 0.04 0.05 0.06 0.06 0.06 0.06 0.04 0.03 0.03 0.03 0.03 0.04 0.03 0.03 0.03 0.03 0.03 0.03
0.02 0.02 0.01 0.01 0.01 0.02 0.02 0.03 0.04 0.04 0.04 0.04 0.04 0.05 0.06 0.05 0.05 0.05 0.05 0.04 0.04 0.03 0.03 0.04 0.04 0.04 0.05 0.05 0.04 0.04 0.04 0.03 0.03 0.03 0.03 0.03 0.03 0.03 0.03 0.02 0.02 0.02 0.02
0.02 0.02 0.03 0.03 0.04 0.04 0.04 0.04 0.05 0.05 0.05 0.04 0.04 0.05 0.05 0.04 0.03 0.03 0.03 0.02 0.02 0.02 0.02 0.03 0.03 0.02 0.02 0.02 0.03 0.02 0.03 0.04 0.04 0.03 0.03 0.03 0.04 0.04 0.04 0.03 0.03 0.03 0.03
0.01 0.02 0.05 0.05 0.05 0.04 0.04 0.05 0.05 0.05 0.04 0.04 0.03 0.03 0.02 0.02 0.02 0.02 0.02 0.02 0.02 0.02 0.02 0.02 0.02 0.02 0.02 0.02 0.02 0.03 0.04 0.04 0.04 0.04 0.03 0.02 0.03 0.03 0.04 0.04 0.05 0.04 0.03
0.01 0.01 0.02 0.03 0.03 0.03 0.03 0.03 0.02 0.02 0.02 0.02 0.02 0.02 0.02 0.02 0.02 0.02 0.01 0.01 0.01 0.01 0.01 0.01 0.01 0.01 0.01 0.01 0.02 0.03 0.03 0.04 0.04 0.04 0.04 0.04 0.04 0.04 0.04 0.04 0.04 0.04 0.03
0.03 0.02 0.02 0.01 0.02 0.02 0.01 0.01 0.01 0.01 0.01 0.01 0.01 0.02 0.02 0.02 0.02 0.02 0.01 0.01 0.01 0.01 0.01 0.01 0.01 0.01 0.01 0.01 0.02 0.02 0.02 0.02 0.02 0.04 0.05 0.05 0.04 0.04 0.04 0.03 0.03 0.03 0.02
0.03 0.03 0.02 0.02 0.02 0.02 0.02 0.02 0.02 0.02 0.02 0.02 0.01 0.02 0.02 0.02 0.02 0.02 0.01 0.02 0.02 0.02 0.02 0.02 0.01 0.01 0.01 0.01 0.02 0.02 0.02 0.02 0.03 0.04 0.05 0.04 0.03 0.03 0.03 0.02 0.02 0.02 0.02
0.03 0.03 0.03 0.02 0.02 0.02 0.02 0.02 0.02 0.02 0.02 0.02 0.02 0.02 0.02 0.02 0.03 0.03 0.03 0.03 0.03 0.04 0.04 0.03 0.03 0.04 0.05 0.04 0.04 0.03 0.03 0.03 0.03 0.03 0.03 0.03 0.03 0.03 0.03 0.03 0.02 0.02 0.03
0.04 0.04 0.03 0.03 0.03 0.03 0.03 0.03 0.02 0.02 0.02 0.02 0.02 0.02 0.02 0.02 0.03 0.03 0.03 0.03 0.04 0.06 0.06 0.05 0.05 0.05 0.04 0.03 0.02 0.02 0.02 0.02 0.02 0.02 0.02 0.03 0.03 0.03 0.03 0.03 0.03 0.04 0.04
0.04 0.03 0.03 0.03 0.03 0.02 0.02 0.03 0.03 0.02 0.02 0.02 0.02 0.02 0.02 0.02 0.02 0.02 0.01 0.02 0.02 0.03 0.03 0.03 0.04 0.04 0.03 0.03 0.02 0.02 0.02 0.02 0.02 0.02 0.03 0.03 0.03 0.03 0.03 0.04 0.04 0.04 0.05
0.03 0.03 0.02 0.03 0.03 0.03 0.03 0.03 0.03 0.03 0.02 0.02 0.03 0.02 0.03 0.02 0.01 0.01 0.01 0.02 0.02 0.02 0.03 0.03 0.04 0.05 0.05 0.05 0.05 0.05 0.04 0.04 0.04 0.04 0.04 0.04 0.04 0.04 0.04 0.05 0.04 0.04 0.04
0.02 0.02 0.02 0.04 0.04 0.04 0.04 0.04 0.04 0.03 0.03 0.04 0.04 0.04 0.03 0.02 0.01 0.01 0.01 0.02 0.03 0.03 0.03 0.03 0.04 0.05 0.05 0.06 0.06 0.06 0.07 0.07 0.06 0.06 0.05 0.05 0.05 0.05 0.04 0.04 0.04 0.04 0.04
0.02 0.02 0.02 0.03 0.04 0.05 0.06 0.05 0.04 0.02 0.03 0.04 0.04 0.03 0.02 0.02 0.02 0.01 0.01 0.02 0.02 0.03 0.03 0.03 0.03 0.03 0.03 0.03 0.05 0.05 0.06 0.07 0.07 0.08 0.09 0.09 0.09 0.08 0.07 0.06 0.05 0.05 0.05
0.02 0.02 0.03 0.03 0.03 0.03 0.05 0.07 0.05 0.03 0.02 0.02 0.03 0.03 0.03 0.02 0.02 0.02 0.02 0.02 0.03 0.03 0.02 0.02 0.03 0.03 0.02 0.02 0.03 0.03 0.03 0.04 0.04 0.05 0.07 0.08 0.08 0.08 0.09 0.09 0.09 0.09 0.09
0.04 0.03 0.02 0.03 0.03 0.03 0.03 0.04 0.06 0.06 0.05 0.04 0.03 0.03 0.03 0.03 0.02 0.03 0.02 0.02 0.02 0.02 0.02 0.02 0.02 0.03 0.03 0.03 0.03 0.03 0.03 0.03 0.03 0.04 0.05 0.05 0.06 0.06 0.07 0.07 0.07 0.07 0.07
0.04 0.03 0.02 0.02 0.02 0.02 0.03 0.03 0.04 0.05 0.06 0.05 0.04 0.03 0.04 0.05 0.04 0.03 0.03 0.02 0.03 0.04 0.04 0.04 0.03 0.03 0.03 0.04 0.04 0.04 0.04 0.04 0.04 0.04 0.04 0.04 0.05 0.05 0.06 0.06 0.06 0.06 0.05
0.04 0.03 0.03 0.03 0.03 0.03 0.03 0.02 0.02 0.02 0.02 0.03 0.03 0.03 0.04 0.05 0.05 0.05 0.05 0.05 0.06 0.07 0.07 0.07 0.06 0.04 0.04 0.03 0.03 0.03 0.03 0.04 0.04 0.04 0.04 0.04 0.04 0.04 0.05 0.05 0.05 0.05 0.05
0.03 0.04 0.04 0.05 0.04 0.03 0.03 0.02 0.02 0.02 0.02 0.02 0.02 0.02 0.03 0.05 0.05 0.05 0.05 0.06 0.06 0.05 0.05 0.05 0.05 0.04 0.03 0.02 0.02 0.03 0.03 0.03 0.03 0.04 0.04 0.04 0.04 0.04 0.04 0.04 0.04 0.04 0.04
MSLP
1004.16 1004.17 1004.23 1004.33 1004.46 1004.62 1004.82 1005.07 1005.37 1005.74 1006.15 1006.62 1007.11 1007.62 1008.12 1008.61 1009.08 1009.53 1009.96 1010.37 1010.78 1011.19 1011.58 1011.97 1012.33 1012.67 1012.97 1013.23 1013.45 1013.66 1013.84 1014.01 1014.17 1014.34 1014.50 1014.66 1014.81 1014.95 1015.08 1015.20 1015.32 1015.45 1015.61
1003.72 1003.61 1003.58 1003.62 1003.72 1003.88 1004.09 1004.37 1004.72 1005.11 1005.56 1006.04 1006.55 1007.07 1007.59 1008.10 1008.59 1009.07 1009.53 1009.98 1010.43 1010.86 1011.27 1011.66 1012.02 1012.35 1012.63 1012.88 1013.10 1013.29 1013.48 1013.65 1013.83 1014.00 1014.17 1014.32 1014.45 1014.55 1014.63 1014.69 1014.75 1014.81 1014.91
1003.27 1003.08 1002.98 1002.97 1003.05 1003.22 1003.47 1003.79 1004.17 1004.62 1005.10 1005.61 1006.14 1006.68 1007.20 1007.72 1008.22 1008.72 1009.20 1009.68 1010.14 1010.59 1011.02 1011.41 1011.76 1012.07 1012.34 1012.57 1012.77 1012.95 1013.12 1013.29 1013.46 1013.63 1013.80 1013.94 1014.06 1014.14 1014.18 1014.20 1014.20 1014.20 1014.23
1002.76 1002.50 1002.35 1002.31 1002.39 1002.58 1002.87 1003.25 1003.70 1004.20 1004.74 1005.30 1005.86 1006.41 1006.94 1007.46 1007.97 1008.47 1008.96 1009.45 1009.92 1010.38 1010.80 1011.19 1011.54 1011.83 1012.07 1012.27 1012.45 1012.60 1012.75 1012.90 1013.06 1013.22 1013.38 1013.52 1013.64 1013.71 1013.73 1013.72 1013.68 1013.64 1013.61
1002.16 1001.85 1001.66 1001.61 1001.70 1001.92 1002.27 1002.71 1003.24 1003.82 1004.43 1005.05 1005.65 1006.23 1006.79 1007.32 1007.83 1008.32 1008.81 1009.29 1009.76 1010.21 1010.63 1011.00 1011.33 1011.60 1011.82 1011.98 1012.12 1012.24 1012.36 1012.48 1012.62 1012.77 1012.93 1013.07 1013.19 1013.26 1013.29 1013.27 1013.22 1013.13 1013.05
1001.52 1001.17 1000.95 1000.89 1000.99 1001.25 1001.65 1002.17 1002.78 1003.45 1004.15 1004.85 1005.52 1006.15 1006.73 1007.27 1007.78 1008.27 1008.74 1009.20 1009.65 1010.08 1010.48 1010.83 1011.14 1011.38 1011.57 1011.71 1011.81 1011.89 1011.97 1012.06 1012.18 1012.31 1012.46 1012.60 1012.73 1012.82 1012.86 1012.85 1012.79 1012.68 1012.56
1000.93 1000.54 1000.29 1000.22 1000.33 1000.62 1001.08 1001.68 1002.38 1003.14 1003.94 1004.72 1005.46 1006.14 1006.77 1007.32 1007.83 1008.30 1008.75 1009.18 1009.60 1010.00 1010.37 1010.70 1010.98 1011.20 1011.36 1011.47 1011.54 1011.58 1011.63 1011.69 1011.77 1011.88 1012.02 1012.16 1012.29 1012.39 1012.45 1012.45 1012.39 1012.28 1012.12
1000.53 1000.10 999.82 999.74 999.85 1000.16 1000.66 1001.33 1002.11 1002.97 1003.85 1004.72 1005.54 1006.28 1006.93 1007.51 1008.01 1008.46 1008.87 1009.26 1009.64 1009.99 1010.33 1010.63 1010.88 1011.08 1011.22 1011.31 1011.35 1011.37 1011.39 1011.41 1011.47 1011.55 1011.66 1011.78 1011.91 1012.01 1012.08 1012.08 1012.03 1011.90 1011.73
1000.45 999.98 999.68 999.57 999.68 1000.01 1000.54 1001.25 1002.10 1003.03 1003.99 1004.94 1005.81 1006.60 1007.28 1007.86 1008.35 1008.77 1009.14 1009.47 1009.79 1010.10 1010.39 1010.65 1010.88 1011.06 1011.19 1011.26 1011.30 1011.30 1011.29 1011.29 1011.30 1011.35 1011.42 1011.51 1011.61 1011.69 1011.75 1011.75 1011.68 1011.55 1011.35
1000.77 1000.28 999.96 999.83 999.93 1000.26 1000.81 1001.56 1002.45 1003.43 1004.45 1005.44 1006.36 1007.17 1007.86 1008.43 1008.88 1009.25 1009.56 1009.83 1010.08 1010.33 1010.56 1010.79 1010.99 1011.15 1011.28 1011.35 1011.38 1011.38 1011.36 1011.33 1011.31 1011.31 1011.33 1011.37 1011.42 1011.46 1011.47 1011.45 1011.36 1011.21 1011.00
1001.50 1001.01 1000.68 1000.55 1000.65 1000.98 1001.54 1002.30 1003.21 1004.21 1005.25 1006.26 1007.19 1008.00 1008.67 1009.21 1009.61 1009.92 1010.15 1010.34 1010.52 1010.69 1010.86 1011.04 1011.21 1011.36 1011.48 1011.56 1011.60 1011.60 1011.57 1011.52 1011.47 1011.42 1011.38 1011.35 1011.33 1011.31 1011.27 1011.19 1011.07 1010.89 1010.66
1002.58 1002.12 1001.81 1001.69 1001.80 1002.13 1002.69 1003.45 1004.35 1005.35 1006.38 1007.38 1008.29 1009.06 1009.69 1010.17 1010.51 1010.73 1010.88 1010.98 1011.07 1011.16 1011.27 1011.39 1011.53 1011.66 1011.78 1011.86 1011.91 1011.92 1011.89 1011.83 1011.75 1011.65 1011.55 1011.45 1011.35 1011.24 1011.13 1010.99 1010.81 1010.60 1010.35
1003.91 1003.50 1003.24 1003.15 1003.27 1003.62 1004.17 1004.91 1005.79 1006.76 1007.75 1008.70 1009.55 1010.27 1010.83 1011.23 1011.49 1011.63 1011.68 1011.69 1011.69 1011.69 1011.73 1011.80 1011.90 1012.01 1012.12 1012.21 1012.27 1012.29 1012.27 1012.20 1012.09 1011.96 1011.80 1011.62 1011.44 1011.25 1011.05 1010.84 1010.61 1010.36 1010.09
1005.34 1005.01 1004.81 1004.78 1004.93 1005.28 1005.83 1006.54 1007.38 1008.29 1009.21 1010.09 1010.86 1011.50 1011.98 1012.30 1012.47 1012.52 1012.49 1012.41 1012.32 1012.25 1012.21 1012.23 1012.28 1012.37 1012.47 1012.56 1012.63 1012.67 1012.65 1012.58 1012.46 1012.29 1012.08 1011.85 1011.59 1011.32 1011.05 1010.77 1010.49 1010.20 1009.91
1006.74 1006.51 1006.39 1006.42 1006.60 1006.97 1007.50 1008.17 1008.95 1009.78 1010.61 1011.40 1012.08 1012.62 1013.02 1013.25 1013.35 1013.32 1013.22 1013.07 1012.91 1012.77 1012.68 1012.64 1012.65 1012.71 1012.80 1012.89 1012.97 1013.01 1013.00 1012.94 1012.81 1012.62 1012.38 1012.10 1011.79 1011.46 1011.12 1010.79 1010.46 1010.15 1009.84
1008.03 1007.90 1007.86 1007.94 1008.17 1008.53 1009.04 1009.65 1010.35 1011.09 1011.82 1012.50 1013.08 1013.54 1013.85 1014.02 1014.06 1013.99 1013.83 1013.64 1013.43 1013.25 1013.11 1013.03 1013.01 1013.04 1013.11 1013.20 1013.27 1013.32 1013.33 1013.27 1013.14 1012.95 1012.69 1012.39 1012.04 1011.67 1011.29 1010.91 1010.56 1010.22 1009.90
1009.17 1009.13 1009.16 1009.30 1009.54 1009.89 1010.36 1010.91 1011.52 1012.15 1012.78 1013.35 1013.84 1014.22 1014.47 1014.59 1014.59 1014.50 1014.33 1014.11 1013.89 1013.69 1013.53 1013.43 1013.38 1013.39 1013.44 1013.51 1013.59 1013.64 1013.65 1013.60 1013.48 1013.29 1013.03 1012.71 1012.34 1011.95 1011.54 1011.15 1010.77 1010.42 1010.10
1010.17 1010.20 1010.29 1010.45 1010.69 1011.02 1011.43 1011.91 1012.42 1012.96 1013.48 1013.96 1014.36 1014.68 1014.88 1014.98 1014.98 1014.89 1014.73 1014.53 1014.32 1014.13 1013.97 1013.85 1013.79 1013.79 1013.82 1013.88 1013.95 1013.99 1014.01 1013.96 1013.85 1013.66 1013.41 1013.08 1012.71 1012.31 1011.89 1011.48 1011.09 1010.73 1010.40
1011.06 1011.13 1011.25 1011.42 1011.65 1011.94 1012.29 1012.68 1013.11 1013.55 1013.98 1014.38 1014.72 1014.99 1015.17 1015.27 1015.28 1015.22 1015.10 1014.94 1014.76 1014.59 1014.45 1014.34 1014.28 1014.27 1014.29 1014.34 1014.39 1014.43 1014.44 1014.39 1014.28 1014.10 1013.84 1013.52 1013.15 1012.74 1012.31 1011.89 1011.49 1011.12 1010.79
1011.85 1011.94 1012.07 1012.24 1012.44 1012.69 1012.98 1013.30 1013.65 1014.01 1014.36 1014.70 1014.99 1015.24 1015.42 1015.53 1015.57 1015.55 1015.48 1015.37 1015.24 1015.11 1014.99 1014.90 1014.85 1014.83 1014.85 1014.88 1014.92 1014.95 1014.95 1014.89 1014.78 1014.59 1014.33 1014.01 1013.63 1013.21 1012.78 1012.34 1011.92 1011.54 1011.19
1012.54 1012.64 1012.77 1012.93 1013.11 1013.32 1013.56 1013.83 1014.11 1014.41 1014.72 1015.01 1015.27 1015.50 1015.69 1015.82 1015.90 1015.93 1015.90 1015.84 1015.76 1015.66 1015.58 1015.51 1015.47 1015.45 1015.46 1015.49 1015.52 1015.53 1015.51 1015.44 1015.31 1015.11 1014.84 1014.51 1014.12 1013.68 1013.23 1012.78 1012.34 1011.92 1011.54
1013.12 1013.23 1013.36 1013.51 1013.67 1013.86 1014.07 1014.31 1014.56 1014.82 1015.09 1015.36 1015.61 1015.83 1016.03 1016.18 1016.28 1016.33 1016.35 1016.32 1016.27 1016.21 1016.15 1016.10 1016.07 1016.06 1016.07 1016.09 1016.11 1016.10 1016.07 1015.98 1015.83 1015.61 1015.32 1014.96 1014.55 1014.10 1013.62 1013.14 1012.67 1012.22 1011.80
1013.57 1013.69 1013.83 1013.98 1014.15 1014.33 1014.54 1014.76 1015.00 1015.25 1015.51 1015.76 1016.01 1016.23 1016.42 1016.57 1016.68 1016.74 1016.77 1016.76 1016.72 1016.68 1016.63 1016.59 1016.57 1016.57 1016.58 1016.60 1016.60 1016.59 1016.54 1016.43 1016.26 1016.01 1015.70 1015.31 1014.87 1014.39 1013.88 1013.37 1012.86 1012.37 1011.90
1013.88 1014.03 1014.18 1014.36 1014.55 1014.75 1014.97 1015.20 1015.45 1015.70 1015.96 1016.20 1016.44 1016.64 1016.82 1016.95 1017.04 1017.09 1017.10 1017.08 1017.04 1017.00 1016.95 1016.92 1016.90 1016.90 1016.91 1016.92 1016.93 1016.90 1016.83 1016.70 1016.51 1016.24 1015.89 1015.47 1015.00 1014.49 1013.95 1013.41 1012.87 1012.34 1011.83
1014.09 1014.27 1014.46 1014.67 1014.89 1015.13 1015.38 1015.63 1015.89 1016.15 1016.40 1016.64 1016.85 1017.03 1017.17 1017.27 1017.32 1017.33 1017.31 1017.26 1017.19 1017.13 1017.07 1017.03 1017.01 1017.01 1017.02 1017.03 1017.02 1016.99 1016.90 1016.75 1016.53 1016.23 1015.85 1015.41 1014.91 1014.37 1013.80 1013.23 1012.67 1012.11 1011.57
1014.25 1014.47 1014.71 1014.96 1015.22 1015.49 1015.76 1016.04 1016.31 1016.57 1016.82 1017.03 1017.21 1017.35 1017.44 1017.49 1017.48 1017.44 1017.36 1017.27 1017.16 1017.06 1016.98 1016.93 1016.90 1016.89 1016.89 1016.90 1016.88 1016.83 1016.72 1016.54 1016.29 1015.96 1015.55 1015.08 1014.55 1013.99 1013.41 1012.83 1012.25 1011.69 1011.13
Thickness
5787 5784 5781 5777 5774 5770 5768 5767 5766 5764 5762 5760 5758 5757 5756 5754 5752 5750 5749 5747 5745 5744 5743 5741 5739 5738 5737 5736 5734 5732 5730 5727 5721 5722 5723 5720 5715 5713 5712 5710 5709 5707 5705
5786 5782 5779 5776 5773 5770 5767 5765 5764 5761 5760 5758 5755 5754 5753 5751 5749 5748 5746 5744 5742 5741 5739 5738 5736 5735 5733 5732 5730 5729 5727 5725 5721 5717 5716 5715 5711 5710 5708 5706 5707 5706 5703
5784 5781 5777 5774 5770 5767 5764 5762 5761 5758 5756 5755 5753 5751 5749 5748 5746 5745 5743 5741 5740 5738 5736 5734 5732 5731 5728 5728 5726 5725 5724 5723 5719 5716 5713 5711 5709 5706 5703 5702 5702 5700 5699
5780 5777 5773 5770 5767 5765 5762 5759 5756 5754 5752 5751 5749 5747 5746 5745 5742 5741 5739 5738 5736 5734 5732 5731 5729 5727 5724 5722 5721 5719 5718 5715 5713 5711 5709 5707 5704 5701 5698 5697 5696 5695 5695
5774 5771 5768 5766 5763 5760 5758 5755 5753 5751 5750 5747 5745 5743 5742 5741 5739 5737 5735 5734 5731 5729 5727 5726 5724 5721 5718 5716 5716 5714 5712 5710 5709 5706 5703 5701 5698 5695 5693 5693 5692 5691 5690
5769 5766 5763 5761 5758 5756 5753 5751 5748 5746 5744 5743 5741 5739 5737 5737 5732 5728 5727 5728 5727 5724 5722 5720 5720 5718 5713 5710 5708 5706 5704 5703 5702 5699 5698 5695 5691 5690 5688 5688 5687 5684 5683
5764 5761 5758 5756 5753 5750 5749 5746 5744 5742 5739 5737 5736 5734 5732 5729 5724 5722 5720 5721 5721 5719 5717 5715 5716 5715 5711 5708 5704 5700 5698 5695 5692 5692 5691 5688 5687 5685 5683 5682 5680 5679 5678
5759 5756 5754 5751 5748 5745 5743 5740 5738 5736 5734 5731 5729 5728 5726 5723 5718 5715 5713 5714 5715 5713 5712 5710 5708 5706 5704 5700 5699 5697 5695 5693 5690 5687 5685 5683 5682 5680 5678 5676 5674 5673 5673
5753 5751 5749 5746 5742 5739 5737 5734 5732 5730 5728 5726 5725 5722 5720 5717 5712 5710 5707 5710 5708 5707 5706 5704 5702 5699 5694 5691 5691 5690 5688 5687 5684 5681 5678 5676 5673 5672 5670 5669 5668 5667 5666
5748 5746 5744 5740 5737 5734 5732 5729 5728 5725 5723 5722 5720 5718 5715 5712 5708 5704 5700 5704 5703 5702 5700 5698 5694 5691 5687 5684 5684 5683 5681 5680 5679 5678 5674 5671 5669 5667 5664 5662 5663 5661 5661
5742 5739 5736 5733 5731 5729 5726 5724 5722 5720 5717 5715 5713 5712 5710 5707 5703 5698 5695 5696 5697 5696 5695 5694 5691 5684 5680 5676 5675 5675 5673 5671 5673 5672 5672 5670 5667 5663 5660 5658 5656 5655 5654
5736 5732 5729 5727 5726 5724 5720 5717 5715 5713 5710 5708 5706 5705 5705 5702 5698 5693 5689 5687 5686 5687 5687 5687 5684 5677 5673 5670 5669 5668 5665 5663 5666 5666 5665 5663 5661 5659 5657 5654 5651 5649 5647
5728 5724 5722 5720 5718 5716 5713 5711 5709 5707 5706 5704 5702 5700 5699 5697 5693 5687 5684 5681 5678 5679 5680 5676 5673 5669 5667 5667 5664 5661 5659 5660 5661 5659 5658 5657 5655 5653 5651 5648 5646 5643 5641
5720 5717 5715 5714 5712 5709 5707 5706 5704 5701 5699 5697 5695 5693 5691 5689 5686 5683 5680 5677 5673 5672 5672 5669 5665 5662 5661 5661 5660 5658 5657 5656 5655 5653 5651 5650 5648 5646 5643 5641 5639 5637 5635
5711 5710 5709 5708 5706 5702 5700 5697 5695 5693 5691 5688 5687 5686 5683 5679 5674 5668 5668 5669 5668 5667 5664 5664 5662 5660 5658 5657 5656 5654 5651 5649 5646 5645 5643 5642 5640 5638 5636 5635 5633 5631 5629
5704 5703 5703 5702 5699 5697 5694 5689 5683 5681 5678 5675 5673 5671 5671 5666 5661 5659 5657 5655 5654 5652 5653 5656 5655 5653 5652 5650 5649 5646 5644 5641 5639 5636 5635 5633 5632 5631 5629 5628 5626 5624 5622
5696 5695 5696 5694 5692 5689 5687 5684 5680 5674 5668 5666 5664 5661 5659 5655 5652 5650 5648 5647 5645 5643 5647 5648 5647 5646 5644 5643 5641 5639 5636 5633 5630 5629 5627 5625 5623 5622 5621 5619 5618 5617 5616
5689 5687 5686 5685 5684 5682 5680 5677 5675 5672 5668 5664 5658 5653 5650 5647 5644 5642 5640 5638 5642 5640 5642 5641 5639 5637 5635 5634 5632 5630 5627 5625 5623 5621 5619 5617 5615 5613 5612 5612 5611 5609 5608
5681 5680 5679 5678 5676 5674 5672 5670 5668 5666 5663 5660 5656 5649 5643 5640 5637 5634 5633 5636 5637 5636 5635 5633 5631 5629 5627 5625 5622 5620 5618 5616 5614 5612 5611 5608 5606 5605 5604 5604 5603 5600 5598
5671 5668 5667 5668 5668 5666 5664 5662 5660 5657 5655 5653 5649 5646 5642 5639 5638 5634 5631 5630 5629 5628 5626 5625 5622 5620 5618 5616 5613 5611 5609 5607 5605 5603 5601 5599 5597 5596 5595 5595 5595 5594 5592
5664 5661 5657 5659 5659 5657 5655 5653 5651 5649 5646 5644 5641 5637 5630 5633 5632 5629 5627 5624 5622 5620 5618 5616 5614 5611 5609 5606 5604 5602 5600 5599 5596 5594 5591 5589 5588 5587 5586 5585 5585 5585 5584
5655 5653 5652 5651 5650 5647 5645 5644 5643 5640 5638 5635 5633 5630 5622 5624 5624 5622 5619 5616 5614 5611 5609 5606 5604 5602 5599 5596 5593 5591 5590 5588 5586 5584 5582 5580 5579 5578 5578 5577 5577 5577 5575
5645 5644 5643 5642 5640 5636 5635 5636 5635 5632 5630 5628 5625 5622 5619 5617 5615 5612 5609 5607 5603 5601 5599 5596 5593 5591 5589 5586 5583 5580 5579 5576 5573 5571 5570 5569 5568 5568 5568 5568 5567 5566 5566
5637 5636 5634 5633 5631 5629 5628 5627 5626 5624 5622 5619 5616 5614 5610 5607 5606 5603 5600 5597 5594 5592 5589 5586 5583 5580 5577 5575 5572 5570 5567 5563 5560 5560 5559 5558 5558 5558 5559 5558 5558 5558 5557
5630 5627 5625 5623 5622 5621 5619 5618 5616 5614 5612 5609 5606 5603 5600 5598 5595 5593 5590 5587 5584 5582 5579 5576 5573 5571 5568 5565 5562 5559 5554 5551 5548 5547 5548 5549 5549 5549 5550 5550 5549 5549 5548
5621 5619 5616 5615 5613 5611 5609 5607 5606 5603 5600 5598 5595 5592 5590 5588 5585 5583 5581 5578 5576 5573 5570 5567 5565 5562 5559 5556 5552 5547 5544 5541 5539 5538 5537 5540 5541 5541 5541 5541 5541 5540 5539